Weather History for KHYX - March, 2013

Change the Weather History Date:

Wednesday, March 27, 2013

  Actual Average (KMBS) Record (KMBS)
Temperature  
Mean Temperature 40 °F 38 °F  
Max Temperature 48 °F 47 °F 74 °F (1998)
Min Temperature 32 °F 29 °F 12 °F (2011)
Degree Days  
Heating Degree Days 25    
Month to date heating degree days  
Since 1 July heating degree days  
Cooling Degree Days 0    
Month to date cooling degree days  
Year to date cooling degree days  
Moisture  
Dew Point 28 °F    
Average Humidity 68    
Maximum Humidity 87    
Minimum Humidity 46    
Precipitation  
Precipitation 0.00 in 0.07 in 0.11 in (2014)
Month to date precipitation 1.77  
Year to date precipitation 5.09  
Snow  
Snow 0.00 in - - ()
Month to date snowfall  
Since 1 July snowfall  
Snow Depth -    
Sea Level Pressure  
Sea Level Pressure 30.12 in    
Wind  
Wind Speed 12 mph (WNW)    
Max Wind Speed 20 mph    
Max Gust Speed 24 mph    
Visibility 10 miles    
Events      
T = Trace of Precipitation, MM = Missing Value Source: NWS Daily Summary

Daily Weather History Graph

Daily Weather History Graph

Search for Another Location

Airport or City:

Trip Planner

Search our weather history database for the weather conditions in past years. The results will help you decide how hot, cold, wet, or windy it might be!

Date:

Astronomy

Mar. 27, 2013 Rise Set
Actual Time 7:25 AM EDT 7:56 PM EDT
Civil Twilight 6:57 AM EDT 8:25 PM EDT
Nautical Twilight 6:23 AM EDT 8:59 PM EDT
Astronomical Twilight 5:48 AM EDT 9:34 PM EDT
Moon 8:41 PM EDT (3/27) 7:14 AM EDT (3/27)
Length of Visible Light 13h 28m
Length of Day
12h 30m
Full, 100% of the Moon is Illuminated
Mar 27
Full
Apr 3
Last Quarter
Apr 10
New
Apr 18
First Quarter
Apr 25
Full

Hourly Weather History & Observations

Time (EDT) Temp. Windchill Dew Point Humidity Pressure Visibility Wind Dir Wind Speed Gust Speed Precip Events Conditions
12:13 AM 35.6 °F 27.5 °F 26.6 °F 70% 30.09 in 10.0 mi WNW 11.5 mph - N/A   Overcast
12:33 AM 35.6 °F 28.0 °F 26.6 °F 70% 30.10 in 10.0 mi NW 10.4 mph 17.3 mph N/A   Overcast
12:53 AM 33.8 °F 25.8 °F 26.6 °F 75% 30.10 in 10.0 mi WNW 10.4 mph 16.1 mph N/A   Overcast
1:13 AM 33.8 °F 26.4 °F 26.6 °F 75% 30.10 in 10.0 mi WNW 9.2 mph - N/A   Mostly Cloudy
1:33 AM 33.8 °F 25.8 °F 26.6 °F 75% 30.10 in 10.0 mi WNW 10.4 mph - N/A   Overcast
1:53 AM 33.8 °F 24.3 °F 26.6 °F 75% 30.10 in 10.0 mi WNW 13.8 mph - N/A   Mostly Cloudy
2:13 AM 33.8 °F 25.3 °F 26.6 °F 75% 30.10 in 10.0 mi WNW 11.5 mph - N/A   Scattered Clouds
2:34 AM 32.0 °F 22.5 °F 26.6 °F 80% 30.09 in 10.0 mi WNW 12.7 mph - N/A   Clear
2:54 AM 32.0 °F 23.0 °F 26.6 °F 80% 30.09 in 10.0 mi West 11.5 mph - N/A   Clear
3:14 AM 32.0 °F 23.6 °F 26.6 °F 80% 30.09 in 10.0 mi West 10.4 mph - N/A   Clear
3:34 AM 32.0 °F 24.2 °F 26.6 °F 80% 30.09 in 10.0 mi West 9.2 mph - N/A   Clear
3:54 AM 32.0 °F 24.2 °F 26.6 °F 80% 30.09 in 10.0 mi West 9.2 mph - N/A   Clear
4:14 AM 32.0 °F 24.2 °F 26.6 °F 80% 30.09 in 10.0 mi West 9.2 mph - N/A   Clear
4:34 AM 32.0 °F 23.6 °F 26.6 °F 80% 30.09 in 10.0 mi West 10.4 mph - N/A   Clear
4:54 AM 32.0 °F 23.0 °F 26.6 °F 80% 30.09 in 10.0 mi West 11.5 mph - N/A   Clear
5:14 AM 32.0 °F 23.6 °F 26.6 °F 80% 30.09 in 10.0 mi West 10.4 mph - N/A   Mostly Cloudy
5:34 AM 32.0 °F 23.0 °F 26.6 °F 80% 30.09 in 10.0 mi West 11.5 mph - N/A   Scattered Clouds
5:54 AM 32.0 °F 24.2 °F 26.6 °F 80% 30.09 in 10.0 mi West 9.2 mph - N/A   Scattered Clouds
6:14 AM 32.0 °F 24.2 °F 26.6 °F 80% 30.10 in 10.0 mi West 9.2 mph - N/A   Overcast
6:34 AM 32.0 °F 24.2 °F 26.6 °F 80% 30.10 in 10.0 mi West 9.2 mph - N/A   Overcast
6:55 AM 32.0 °F 23.6 °F 26.6 °F 80% 30.11 in 10.0 mi West 10.4 mph - N/A   Overcast
7:15 AM 32.0 °F 23.0 °F 28.4 °F 87% 30.10 in 10.0 mi West 11.5 mph 16.1 mph N/A   Overcast
7:35 AM 32.0 °F 22.5 °F 28.4 °F 87% 30.11 in 10.0 mi West 12.7 mph - N/A   Overcast
7:55 AM 32.0 °F 22.5 °F 28.4 °F 87% 30.11 in 10.0 mi West 12.7 mph - N/A   Overcast
8:15 AM 32.0 °F 21.6 °F 28.4 °F 87% 30.12 in 10.0 mi WNW 15.0 mph - N/A   Overcast
8:35 AM 32.0 °F 24.2 °F 28.4 °F 87% 30.12 in 10.0 mi WNW 9.2 mph - N/A   Overcast
8:55 AM 33.8 °F 24.8 °F 28.4 °F 81% 30.13 in 10.0 mi West 12.7 mph 17.3 mph N/A   Overcast
9:15 AM 33.8 °F 25.3 °F 28.4 °F 81% 30.13 in 10.0 mi WNW 11.5 mph 19.6 mph N/A   Overcast
9:35 AM 33.8 °F 23.2 °F 28.4 °F 81% 30.13 in 10.0 mi WNW 17.3 mph - N/A   Overcast
9:55 AM 33.8 °F 23.2 °F 28.4 °F 81% 30.12 in 10.0 mi WNW 17.3 mph 21.9 mph N/A   Overcast
10:15 AM 35.6 °F 26.2 °F 28.4 °F 75% 30.13 in 10.0 mi WNW 15.0 mph - N/A   Overcast
10:31 AM 35.6 °F 25.9 °F 30.2 °F 81% 30.13 in 10.0 mi WNW 16.1 mph 19.6 mph N/A   Overcast
10:51 AM 37.4 °F 28.2 °F 30.2 °F 75% 30.13 in 10.0 mi WNW 16.1 mph - N/A   Overcast
11:11 AM 37.4 °F 29.8 °F 30.2 °F 75% 30.13 in 10.0 mi West 11.5 mph - N/A   Mostly Cloudy
11:31 AM 41.0 °F 32.8 °F 30.2 °F 65% 30.13 in 10.0 mi WNW 16.1 mph - N/A   Scattered Clouds
11:51 AM 42.8 °F 35.1 °F 30.2 °F 61% 30.13 in 10.0 mi WNW 16.1 mph - N/A   Clear
12:11 PM 42.8 °F 35.1 °F 30.2 °F 61% 30.14 in 10.0 mi West 16.1 mph - N/A   Clear
12:31 PM 44.6 °F 37.2 °F 30.2 °F 57% 30.13 in 10.0 mi West 17.3 mph 21.9 mph N/A   Clear
12:52 PM 44.6 °F 37.4 °F 30.2 °F 57% 30.13 in 10.0 mi WNW 16.1 mph 19.6 mph N/A   Scattered Clouds
1:12 PM 44.6 °F 37.2 °F 30.2 °F 57% 30.13 in 10.0 mi NNW 17.3 mph 23.0 mph N/A   Clear
1:32 PM 46.4 °F 39.5 °F 28.4 °F 50% 30.13 in 10.0 mi NW 17.3 mph 24.2 mph N/A   Scattered Clouds
1:52 PM 44.6 °F 38.8 °F 28.4 °F 53% 30.12 in 10.0 mi West 11.5 mph 23.0 mph N/A   Scattered Clouds
2:12 PM 46.4 °F 41.5 °F 30.2 °F 53% 30.12 in 10.0 mi West 10.4 mph 23.0 mph N/A   Mostly Cloudy
2:32 PM 44.6 °F 39.7 °F 28.4 °F 53% 30.12 in 10.0 mi West 9.2 mph 13.8 mph N/A   Mostly Cloudy
2:52 PM 44.6 °F 37.2 °F 28.4 °F 53% 30.11 in 10.0 mi WNW 17.3 mph 21.9 mph N/A   Mostly Cloudy
3:12 PM 46.4 °F 40.1 °F 28.4 °F 50% 30.11 in 10.0 mi West 15.0 mph 20.7 mph N/A   Overcast
3:32 PM 48.2 °F - 28.4 °F 46% 30.11 in 10.0 mi West 13.8 mph 24.2 mph N/A   Overcast
3:55 PM 48.2 °F - 28.4 °F 46% 30.10 in 10.0 mi NW 18.4 mph 23.0 mph N/A   Overcast
4:15 PM 46.4 °F 39.0 °F 26.6 °F 46% 30.10 in 10.0 mi WNW 19.6 mph 24.2 mph N/A   Overcast
4:35 PM 46.4 °F 40.1 °F 28.4 °F 50% 30.11 in 10.0 mi NW 15.0 mph 24.2 mph N/A   Overcast
4:55 PM 46.4 °F 40.7 °F 28.4 °F 50% 30.11 in 10.0 mi WNW 12.7 mph 20.7 mph N/A   Overcast
5:15 PM 46.4 °F 39.2 °F 26.6 °F 46% 30.11 in 10.0 mi WNW 18.4 mph 23.0 mph N/A   Overcast
5:35 PM 46.4 °F 39.8 °F 26.6 °F 46% 30.11 in 10.0 mi NW 16.1 mph 20.7 mph N/A   Overcast
5:55 PM 44.6 °F 36.9 °F 26.6 °F 49% 30.11 in 10.0 mi WNW 18.4 mph 23.0 mph N/A   Overcast
6:16 PM 44.6 °F 36.6 °F 26.6 °F 49% 30.12 in 10.0 mi WNW 19.6 mph - N/A   Overcast
6:31 PM 44.6 °F 37.8 °F 26.6 °F 49% 30.12 in 10.0 mi WNW 15.0 mph 18.4 mph N/A   Overcast
6:51 PM 44.6 °F 37.8 °F 28.4 °F 53% 30.12 in 10.0 mi NW 15.0 mph 19.6 mph N/A   Overcast
7:11 PM 44.6 °F 37.2 °F 28.4 °F 53% 30.13 in 10.0 mi NW 17.3 mph 21.9 mph N/A   Overcast
7:31 PM 42.8 °F 34.8 °F 28.4 °F 57% 30.14 in 10.0 mi NW 17.3 mph - N/A   Overcast
7:51 PM 42.8 °F 36.2 °F 28.4 °F 57% 30.14 in 10.0 mi NNW 12.7 mph 18.4 mph N/A   Overcast
8:11 PM 41.0 °F 34.7 °F 28.4 °F 61% 30.15 in 10.0 mi NNW 10.4 mph - N/A   Overcast
8:31 PM 41.0 °F 34.3 °F 28.4 °F 61% 30.15 in 10.0 mi NNW 11.5 mph 17.3 mph N/A   Overcast
8:52 PM 41.0 °F 34.3 °F 28.4 °F 61% 30.16 in 10.0 mi NNW 11.5 mph 18.4 mph N/A   Overcast
9:12 PM 39.2 °F 32.5 °F 28.4 °F 65% 30.16 in 10.0 mi NW 10.4 mph - N/A   Overcast
9:32 PM 39.2 °F 30.8 °F 28.4 °F 65% 30.17 in 10.0 mi NW 15.0 mph 19.6 mph N/A   Overcast
9:52 PM 39.2 °F 32.0 °F 28.4 °F 65% 30.17 in 10.0 mi NNW 11.5 mph - N/A   Overcast
10:12 PM 37.4 °F 30.3 °F 28.4 °F 70% 30.18 in 10.0 mi NNW 10.4 mph - N/A   Overcast
10:32 PM 37.4 °F 30.3 °F 28.4 °F 70% 30.18 in 10.0 mi NNW 10.4 mph - N/A   Overcast
10:52 PM 37.4 °F 31.4 °F 28.4 °F 70% 30.18 in 10.0 mi NW 8.1 mph - N/A   Overcast
11:12 PM 33.8 °F 27.7 °F 28.4 °F 81% 30.18 in 10.0 mi WNW 6.9 mph - N/A   Scattered Clouds
11:32 PM 33.8 °F 27.7 °F 28.4 °F 81% 30.18 in 10.0 mi WNW 6.9 mph - N/A   Clear
11:52 PM 33.8 °F 28.6 °F 28.4 °F 81% 30.19 in 10.0 mi WNW 5.8 mph - N/A   Mostly Cloudy